Regional Weather Roundup
Issued by NWS

Home | Current Version | Previous Version | Text Only | Print | Product List | Glossary On
Versions: 1 2 3 4 5 6 7 8 9 10 11 12 13 14 15 16 17 18 19 20 21 22 23 24 25 26 27 28 29 30 31 32 33 34 35 36 37 38 39 40 41 42 43 44 45 46 47 48 49 50
000
ASUS43 KOAX 230602
RWRNE

WEATHER ROUNDUP FOR NEBRASKA
NATIONAL WEATHER SERVICE OMAHA NE
1200 AM CST SUN NOV 23 2014

NOTES: SATELLITE DATA IS BEING USED TO AUGMENT CLOUD COVER ABOVE
       12000 FEET.
       "FAIR" INDICATES FEW OR NO CLOUDS BELOW 12,000 FEET WITH NO
       SIGNIFICANT WEATHER AND/OR OBSTRUCTIONS TO VISIBILITY.

  * THESE STATIONS DO NOT REPORT WEATHER SUCH AS RAIN...SNOW OR FOG.

NEZ001>004-019>022-054>056-230700-
NEBRASKA PANHANDLE

CITY           SKY/WX    TMP DP  RH WIND       PRES   REMARKS
SCOTTSBLUFF    CLOUDY    44  30  57 NW13      29.51S
6HR MIN TEMP:  32; 6HR MAX TEMP:  52; 6HR PCP: TRACE;

ALLIANCE       CLOUDY    35  28  75 W7        29.50S WCI  29
6HR MIN TEMP:  33; 6HR MAX TEMP:  53; 6HR PCP: TRACE;

CHADRON        PTCLDY    41  32  70 W16G25    29.52R
6HR MIN TEMP:  35; 6HR MAX TEMP:  49;

KIMBALL        MOCLDY    47  28  47 W15G24    29.51S
SIDNEY         MOCLDY    43  25  49 NW10      29.53F
6HR MIN TEMP:  34; 6HR MAX TEMP:  54;

$$

NEZ057>060-069>072-079>082-230700-
SOUTHWEST NEBRASKA

CITY           SKY/WX    TMP DP  RH WIND       PRES   REMARKS
NORTH PLATTE   CLOUDY    38  26  62 E5        29.50S WCI  34
6HR MIN TEMP:  33; 6HR MAX TEMP:  43;

IMPERIAL       CLOUDY    42  18  37 CALM      29.51R
6HR MIN TEMP:  38; 6HR MAX TEMP:  48;

MCCOOK         CLOUDY    45  30  55 SE7       29.50F
6HR MIN TEMP:  41; 6HR MAX TEMP:  55;

$$

NEZ005>010-023>029-035>040-094-230700-
NORTH CENTRAL NEBRASKA

CITY           SKY/WX    TMP DP  RH WIND       PRES   REMARKS
VALENTINE      CLOUDY    40  37  89 SW10      29.43F WCI  33
6HR MIN TEMP:  40; 6HR MAX TEMP:  52; 6HR PCP:  0.01;

AINSWORTH      CLOUDY    43  37  79 S8        29.44F
BROKEN BOW     CLOUDY    44  30  57 CALM      29.49F
6HR MIN TEMP:  43; 6HR MAX TEMP:  52;

ORD            CLOUDY    42  33  70 CALM      29.49F
6HR MIN TEMP:  33; 6HR MAX TEMP:  47;

$$

NEZ041-046>049-061>064-073>077-083>087-230700-
SOUTH CENTRAL NEBRASKA

CITY           SKY/WX    TMP DP  RH WIND       PRES   REMARKS
HASTINGS       CLOUDY    54  48  80 S13       29.51F
6HR MIN TEMP:  47; 6HR MAX TEMP:  55;

KEARNEY *      CLOUDY    52  48  87 S9        29.53S
YORK           CLOUDY    54  50  87 S10       29.53F
$$

NEZ011>018-030>034-042>045-230700-
NORTHEAST NEBRASKA

CITY           SKY/WX    TMP DP  RH WIND       PRES   REMARKS
NORFOLK        CLOUDY    52  49  89 S21G26    29.48S
6HR MIN TEMP:  45; 6HR MAX TEMP:  52;

BLAIR          CLOUDY    55  52  89 S14G23    29.54F
COLUMBUS *     CLOUDY    54  48  82 S13       29.52F
FREMONT        MOCLDY    56  52  87 S12       29.54S
TEKAMAH        MOCLDY    54  50  86 S13       29.53F
6HR MIN TEMP:  45; 6HR MAX TEMP:  54;

$$

NEZ050>053-065>068-078-088>093-230700-
SOUTHEAST NEBRASKA

CITY           SKY/WX    TMP DP  RH WIND       PRES   REMARKS
LINCOLN        CLOUDY    55  51  86 S10       29.55F
6HR MIN TEMP:  54; 6HR MAX TEMP:  58;

OMAHA EPPLEY   DRIZZLE   54  52  93 S16       29.56F
6HR MIN TEMP:  53; 6HR MAX TEMP:  56; 6HR PCP: TRACE;

FALLS CITY     CLOUDY    55  52  89 S8        29.63F
6HR MIN TEMP:  54; 6HR MAX TEMP:  57;

$$

NEZ044-045-051>053-067-230700-
OMAHA AREA

CITY           SKY/WX    TMP DP  RH WIND       PRES   REMARKS
OMAHA EPPLEY   DRIZZLE   54  52  93 S16       29.56F
6HR MIN TEMP:  53; 6HR MAX TEMP:  56; 6HR PCP: TRACE;

BLAIR          CLOUDY    55  52  89 S14G23    29.54F
FREMONT        MOCLDY    56  52  87 S12       29.54S
OFFUTT AFB     CLOUDY    54  52  94 S10       29.56F
$$


USA.gov is the U.S. government's official web portal to all federal, state and local government web resources and services.